Flagstaff, Arizona, United States (86001)
Lat: 35.20N, Lon: 111.65W
Wx Zone: AZZ015
Local Info
Past Weather Observations for Saturday, July 25, 2015

NOTE: This archive is for the closest National Weather Service station to Flagstaff. Information may differ from the station used for current weather conditions.

Click here for Long-term Archive

Time Weather Temperature Dewpoint Humidity Pressure Winds Precip Visibility
23:57
Clear
54°F / 12°C 36°F / 2°C 51% 30.27 in
(1025 mb)
Calm - 10SM
22:57
Clear
57°F / 14°C 36°F / 2°C 44% 30.27 in
(1025 mb)
Calm - 10SM
21:57
Clear
59°F / 15°C 36°F / 2°C 42% 30.27 in
(1025 mb)
Calm - 10SM
20:57
Clear
63°F / 17°C 39°F / 4°C 42% 30.27 in
(1025 mb)
Calm - 10SM
19:57
Clear
70°F / 21°C 41°F / 5°C 35% 30.27 in
(1025 mb)
SW 3.5 mph
(SW 6 kph)
- 10SM
18:57
Clear
75°F / 24°C 39°F / 4°C 27% 30.27 in
(1025 mb)
SW 8.1 mph
(SW 13 kph)
- 10SM
17:57
Clear
79°F / 26°C 39°F / 4°C 24% 30.24 in
(1024 mb)
SW 11.5 mph
(SW 19 kph)
- 10SM
16:57
Clear
81°F / 27°C 39°F / 4°C 23% 30.27 in
(1025 mb)
SSW 9.2 mph
(SSW 15 kph)
- 10SM
15:57
Clear
81°F / 27°C 41°F / 5°C 24% 30.27 in
(1025 mb)
SW 15 mph
(SW 24 kph)
- 10SM
14:57
Clear
81°F / 27°C 43°F / 6°C 26% 30.3 in
(1026 mb)
SSE 11.5 mph
(SSE 19 kph)
- 10SM
13:57
Clear
79°F / 26°C 43°F / 6°C 28% 30.33 in
(1027 mb)
S 12.7 mph
(S 20 kph)
- 10SM
12:57
Clear
79°F / 26°C 45°F / 7°C 30% 30.36 in
(1028 mb)
S 12.7 mph
(S 20 kph)
- 10SM
11:57
Mostly Cloudy
75°F / 24°C 45°F / 7°C 34% 30.36 in
(1028 mb)
S 6.9 mph
(S 11 kph)
- 10SM
10:57
Mostly Cloudy
75°F / 24°C 41°F / 5°C 29% 30.36 in
(1028 mb)
SW 9.2 mph
(SW 15 kph)
- 10SM
09:57
Partly Cloudy
73°F / 23°C 37°F / 3°C 27% 30.39 in
(1029 mb)
SW 8.1 mph
(SW 13 kph)
- 10SM
08:57
Overcast
72°F / 22°C 43°F / 6°C 36% 30.39 in
(1029 mb)
ENE 3.5 mph
(ENE 6 kph)
- 10SM
07:57
Overcast
61°F / 16°C 45°F / 7°C 55% 30.39 in
(1029 mb)
Calm - 10SM
06:57
Clear
55°F / 13°C 43°F / 6°C 63% 30.36 in
(1028 mb)
Calm - 10SM
05:57
Clear
52°F / 11°C 39°F / 4°C 62% 30.36 in
(1028 mb)
Calm - 10SM
04:57
Clear
54°F / 12°C 37°F / 3°C 54% 30.33 in
(1027 mb)
Calm - 10SM
03:57
Clear
57°F / 14°C 36°F / 2°C 44% 30.33 in
(1027 mb)
NW 3.5 mph
(NW 6 kph)
- 10SM
02:57
Clear
57°F / 14°C 34°F / 1°C 41% 30.33 in
(1027 mb)
W 3.5 mph
(W 6 kph)
- 10SM
01:57
Clear
54°F / 12°C 37°F / 3°C 54% 30.36 in
(1028 mb)
Calm - 10SM
00:57
Clear
54°F / 12°C 36°F / 2°C 51% 30.36 in
(1028 mb)
Calm - 10SM
Time Weather Temperature Dewpoint Humidity Pressure Winds Precip Visibility


Weather for websites

WeatherForYou.com, LLC is not responsible for any damages or problems caused by this service. Current weather conditions are obtained from the closest station including government and personal stations which may have varying degrees of accuracy. Weather forecasts are derived from the NOAA NDFD. Like all things, this site belongs to Jesus Christ... He just trusts us to maintain it. If you have any questions or comments email webmaster@weatherforyou.com

Copyright © 2015, WeatherForYou.com LLC. All rights reserved.